TUBIN
1 48900U 21059X   25248.61998105  .00074889  00000-0  64342-3 0  9996
2 48900  97.6770  65.5445 0002718 257.5978 102.4979 15.69120562233804
LEDSAT
1 49069U 21073D   25248.22683771  .00219098  00000-0  12976-2 0  9994
2 49069  97.3801 334.2601 0004596 134.2322 225.9323 15.77445571225166
CUTE
1 49263U 21088D   25248.16154834  .00031257  00000-0  53743-3 0  9999
2 49263  97.4446 327.1688 0005002 269.8987  90.1692 15.51056118217988
TeikyoSat 4
1 49396U 21102B   25248.54938923  .00002593  00000-0  17228-3 0  9993
2 49396  97.4046 283.7917 0012310 183.3711 176.7437 15.07991457209803
Z-Sat
1 49399U 21102E   25248.54529649  .00005887  00000-0  31646-3 0  9996
2 49399  97.3739 287.4433 0018673 154.3363 205.8801 15.15104971210297
KOSEN 1
1 49402U 21102H   25248.57577866  .00009652  00000-0  43121-3 0  9993
2 49402  97.3639 291.5727 0016951 127.8214 232.4559 15.21415956210662
HO-113
1 50466U 21131B   25248.60654987  .00000999  00000-0  32504-3 0  9999
2 50466  98.5086 337.5261 0003431 219.2515 140.8425 14.40910896194125
SNUGLITE 2
1 52899U 22065F   25248.63107461  .00002155  00000-0  42571-3 0  9992
2 52899  98.1807  29.8150 0007362 188.3623 171.7458 14.63416670169368
UmKA 1 (RS40S)
1 57172U 23091G   25248.60440524  .00007953  00000-0  41269-3 0  9992
2 57172  97.5508 303.5411 0014763  35.9999 324.2225 15.16311133120817
CubeBel-2 (EU11S)
1 57175U 23091K   25248.58623209  .00013478  00000-0  61116-3 0  9997
2 57175  97.5505 305.2391 0012352  42.1262 318.0921 15.20889067120925
ENSO
1 58470U 23185J   25248.60053602  .00126202  00000-0  11309-2 0  9995
2 58470  97.3648 327.1557 0004856 131.5953 228.5725 15.67910954 98761
EIRSAT-1
1 58472U 23185L   25247.61785164  .16327471  25584-5  21378-3 0  9997
2 58472  97.3302 330.8194 0010438 267.2211  92.7899 16.48977480 98923
SONATE-2
1 59112U 24043Q   25248.31828251  .00027236  00000-0  71274-3 0  9996
2 59112  97.5231  21.4755 0010687 157.4132 202.7585 15.38646400 83812
MO-122
1 60209U 24125G   25248.56747237  .00026142  00000-0  66994-3 0  9995
2 60209  97.2695  99.3336 0017598 175.2858 184.8557 15.39191665 65472
GRBBeta
1 60237U 24128C   25248.09118424  .00007159  00000-0  52118-3 0  9997
2 60237  61.9914 134.2815 0056522  76.4694 284.2686 15.03367679 63350
Curium One
1 60242U 24128H   25248.03663121  .00012403  00000-0  82095-3 0  9991
2 60242  61.9812 131.3760 0056483  73.2207 287.5073 15.06388248 63401
ROBUSTA-3A
1 60243U 24128J   25248.39986493  .00012255  00000-0  82365-3 0  9996
2 60243  61.9883 131.2362 0055761  70.7664 289.9450 15.05867044 63448
CatSat
1 60246U 24125J   25248.32082275  .00029037  00000-0  89110-3 0  9995
2 60246  97.2511  97.2647 0041418 139.6383 220.7946 15.32839520 63413
HYPERVIEW-1G (RS66S)
1 61772U 24199AP  25248.62654503  .00032404  00000-0  83405-3 0  9996
2 61772  97.3394 117.4434 0010905 229.2333 130.7967 15.39116189 90481
AO-123
1 61781U 24199AY  25248.61015319  .00009983  00000-0  35062-3 0  9993
2 61781  97.3416 115.2438 0013751 242.3046 117.6800 15.29502151 90336
ZIMSAT 2
1 61783U 24199BA  25248.62901994  .00062820  00000-0  12096-2 0  9999
2 61783  97.3351 118.8984 0010013 218.1319 141.9224 15.47620694 93733
HADES-R (SO-124)
1 62690U 25009CK  25247.87606413  .00072037  00000-0  20588-2 0  9998
2 62690  97.4037 328.6711 0003272 154.4111 205.7295 15.35717783 35515
HYDRA-T
1 62692U 25009CM  25248.49401985  .00069017  00000-0  19408-2 0  9999
2 62692  97.4038 329.3709 0002965 147.0332 213.1097 15.36239882 35618
JINJUSat 1B
1 63210U 25052A   25248.32946023  .00017859  00000-0  77150-3 0  9999
2 63210  97.4290 141.3876 0005044  41.6635 318.4985 15.22537870 26593
NUSHSAT 1
1 63211U 25052B   25248.43724141  .00020132  00000-0  85737-3 0  9995
2 63211  97.4282 141.5260 0005275  46.1008 314.0664 15.22995543 26618
TEVEL2-4
1 63213U 25052D   25247.68163641  .00019243  00000-0  83010-3 0  9998
2 63213  97.4188 140.5155 0005060  63.3095 296.8659 15.22569934 26494
TEVEL2-5
1 63214U 25052E   25248.40666235  .00018638  00000-0  80437-3 0  9994
2 63214  97.4196 141.2273 0004965  61.8634 298.3104 15.22560613 26608
TEVEL2-6
1 63215U 25052F   25248.60827154  .00017959  00000-0  77604-3 0  9993
2 63215  97.4197 141.4187 0005040  61.6007 298.5737 15.22526506 26633
TEVEL2-1
1 63217U 25052H   25248.23826246  .00017857  00000-0  77754-3 0  9998
2 63217  97.4172 140.9405 0005509  70.2364 289.9466 15.22264359 26578
TEVEL2-3
1 63218U 25052J   25248.43557733  .00018487  00000-0  80448-3 0  9997
2 63218  97.4175 141.1371 0005596  70.7410 289.4431 15.22278347 26603
TEVEL2-2
1 63219U 25052K   25248.23895177  .00017718  00000-0  77161-3 0  9997
2 63219  97.4175 140.9407 0005552  71.0979 289.0858 15.22260440 26577
TEVEL2-9
1 63237U 25052AD  25248.37575766  .00017671  00000-0  79838-3 0  9992
2 63237  97.4239 140.9047 0009960  74.5061 285.7274 15.20972872 26577
TEVEL2-7
1 63238U 25052AE  25248.25059301  .00017403  00000-0  78839-3 0  9995
2 63238  97.4239 140.7706 0009990  74.6836 285.5503 15.20882855 26554
TEVEL2-8
1 63239U 25052AF  25248.25440651  .00017543  00000-0  79544-3 0  9997
2 63239  97.4236 140.7635 0009968  74.8859 285.3478 15.20852270 26552
HYDRA-W
1 63490U 25052BL  25248.39023072  .00044407  00000-0  16186-2 0  9996
2 63490  97.4181 141.8316 0013243  71.1093 289.1581 15.27957086 26644
HADES-ICM (SO-125)
1 63492U 25052BN  25248.24053961  .00043003  00000-0  16039-2 0  9990
2 63492  97.4180 141.5870 0013627  74.6707 285.6037 15.27202548 26613
